CW7368 Weather Reports


Display with metric or nautical units.
time (UTC)temp
F
wind
direction
speed
MPH
gust
MPH
rain 1hr
in
rain 24hr
in
rain mn
in
humidity
%
barometer
mb
20180822015304 61 262 1.0 6.0 0.00 0.01 0.01 38 993.9
20180822014804 61 266 2.0 5.0 0.00 0.01 0.01 37 993.8
20180822014304 61 327 2.0 8.0 0.00 0.01 0.01 38 993.8
20180822013805 61 279 1.0 7.0 0.00 0.01 0.01 39 993.8
20180822013304 61 269 2.0 6.0 0.00 0.01 0.01 38 993.8
20180822012804 61 345 3.0 5.0 0.00 0.01 0.01 38 993.8
20180822012304 61 253 1.0 3.0 0.00 0.01 0.01 40 993.8
20180822011804 61 253 0.0 5.0 0.00 0.01 0.01 40 993.8
20180822011305 61 253 1.0 3.0 0.00 0.01 0.01 40 993.8
20180822010804 61 256 2.0 3.0 0.00 0.01 0.01 38 993.9
20180822010304 62 276 2.0 6.0 0.00 0.01 0.01 38 993.8
20180822005804 61 263 0.0 1.0 0.00 0.01 0.01 42 993.8
20180822005304 60 263 0.0 3.0 0.00 0.01 0.01 44 993.8
20180822004804 60 261 1.0 3.0 0.00 0.01 0.01 45 993.8
20180822004304 59 261 2.0 3.0 0.00 0.01 0.01 46 994.0
20180822003804 60 267 1.0 3.0 0.00 0.01 0.01 45 993.9
20180822003304 60 276 1.0 9.0 0.00 0.01 0.01 47 993.9
20180822002804 60 288 0.0 3.0 0.00 0.01 0.01 48 993.9
20180822002304 60 287 1.0 5.0 0.00 0.01 0.01 48 994.0
20180822001804 58 292 0.0 3.0 0.00 0.01 0.01 50 993.9
20180822001304 58 347 0.0 8.0 0.00 0.01 0.01 51 994.0
20180822000804 58 338 1.0 5.0 0.00 0.01 0.01 50 994.0
20180822000304 57 244 2.0 3.0 0.00 0.01 0.01 52 994.1
20180821235804 57 240 3.0 7.0 0.00 0.01 0.01 51 994.1
20180821235305 58 336 1.0 5.0 0.00 0.01 0.01 52 994.1
20180821234805 58 336 1.0 8.0 0.00 0.01 0.01 50 994.2
20180821234305 57 350 0.0 3.0 0.00 0.01 0.01 50 994.2
20180821233804 57 351 1.0 8.0 0.00 0.01 0.01 51 994.2
20180821233304 57 347 3.0 6.0 0.00 0.01 0.01 49 994.3
20180821232804 57 61 1.0 3.0 0.00 0.01 0.01 51 994.3
20180821232304 57 61 0.0 2.0 0.00 0.01 0.01 52 994.3
20180821231804 57 61 0.0 3.0 0.00 0.01 0.01 53 994.3
20180821231304 57 65 1.0 3.0 0.00 0.01 0.01 53 994.3
20180821230804 57 65 0.0 3.0 0.00 0.01 0.01 52 994.2
20180821230304 56 66 0.0 1.0 0.00 0.01 0.01 54 994.2
20180821225804 56 66 1.0 3.0 0.00 0.01 0.01 56 994.2
20180821225304 56 66 1.0 3.0 0.00 0.01 0.01 58 994.2
20180821224804 56 66 0.0 1.0 0.00 0.01 0.01 60 994.1
20180821224305 55 66 0.0 3.0 0.00 0.01 0.01 67 994.1
20180821223805 55 66 0.0 1.0 0.00 0.01 0.01 66 994.0
20180821223304 54 66 0.0 3.0 0.00 0.01 0.01 67 994.1
20180821222805 54 66 1.0 3.0 0.00 0.01 0.01 70 994.0
20180821222304 54 66 1.0 3.0 0.00 0.01 0.01 70 994.0
20180821221804 53 66 2.0 3.0 0.00 0.01 0.01 72 994.0
20180821221304 53 65 2.0 5.0 0.00 0.01 0.01 73 993.9
20180821220805 53 66 1.0 5.0 0.00 0.01 0.01 74 993.9
20180821220305 53 66 1.0 5.0 0.00 0.01 0.01 76 993.9
20180821215804 52 66 1.0 2.0 0.00 0.01 0.01 78 993.9
20180821215304 51 65 2.0 5.0 0.00 0.01 0.01 78 993.8
20180821214804 52 66 1.0 3.0 0.00 0.01 0.01 78 993.9
20180821214305 51 66 0.0 1.0 0.00 0.01 0.01 80 993.9
20180821213804 51 66 1.0 3.0 0.00 0.01 0.01 80 993.7
20180821213304 50 66 0.0 1.0 0.00 0.01 0.01 81 993.7
20180821212804 49 66 1.0 3.0 0.00 0.01 0.01 81 993.6
20180821212304 49 66 0.0 1.0 0.00 0.01 0.01 83 993.6
20180821211804 49 66 0.0 1.0 0.00 0.01 0.01 85 993.6
20180821211304 48 66 0.0 2.0 0.00 0.01 0.01 86 993.4
20180821210804 47 66 0.0 1.0 0.00 0.01 0.01 89 993.4
20180821210304 45 66 0.0 0.0 0.00 0.01 0.01 90 993.4
20180821205804 44 66 0.0 0.0 0.00 0.01 0.01 90 993.3
20180821205304 44 66 1.0 3.0 0.00 0.01 0.01 91 993.3
20180821204804 44 66 1.0 3.0 0.00 0.01 0.01 92 993.2
20180821204304 43 66 0.0 1.0 0.00 0.01 0.01 93 993.2
20180821203804 43 66 0.0 0.0 0.00 0.01 0.01 94 993.0
20180821203304 42 66 0.0 0.0 0.00 0.01 0.01 94 992.9
20180821202804 41 66 0.0 0.0 0.00 0.01 0.01 94 992.8
20180821202305 41 66 0.0 0.0 0.00 0.01 0.01 94 992.7
20180821201805 40 66 0.0 0.0 0.00 0.01 0.01 94 992.7
20180821201304 39 66 0.0 0.0 0.00 0.01 0.01 94 992.6
20180821200804 39 66 0.0 2.0 0.00 0.01 0.01 94 992.5
20180821200304 39 66 1.0 3.0 0.00 0.01 0.01 94 992.5
20180821195804 39 66 0.0 0.0 0.00 0.01 0.01 94 992.5
20180821195304 39 66 0.0 1.0 0.00 0.01 0.01 94 992.4
20180821194804 38 66 0.0 3.0 0.00 0.01 0.01 94 992.3
20180821194304 38 65 0.0 2.0 0.00 0.01 0.01 94 992.3
20180821193804 38 66 0.0 1.0 0.00 0.01 0.01 94 992.1
20180821193304 38 66 1.0 3.0 0.00 0.01 0.01 94 992.1
20180821192804 38 66 1.0 3.0 0.00 0.01 0.01 94 992.0
20180821192305 38 69 0.0 1.0 0.00 0.01 0.01 94 991.9
20180821191804 38 69 0.0 0.0 0.00 0.01 0.01 94 991.8
20180821191304 38 69 0.0 0.0 0.00 0.01 0.01 94 991.6
20180821190805 38 69 0.0 0.0 0.00 0.01 0.01 94 991.6
20180821190306 38 69 0.0 10.0 0.00 0.01 0.01 94 991.5
20180821055805 50 240 0.0 0.0 0.00 0.00 0.00 72 985.9
20180821055304 50 240 0.0 0.0 0.00 0.00 0.00 72 985.8
20180821054804 51 240 0.0 0.0 0.00 0.00 0.00 71 985.8
20180821054304 51 240 0.0 0.0 0.00 0.00 0.00 71 985.7
20180821053804 51 240 0.0 0.0 0.00 0.00 0.00 71 985.7
20180821053304 51 240 0.0 0.0 0.00 0.00 0.00 71 985.7
20180821052804 51 240 0.0 0.0 0.00 0.00 0.00 70 985.6
20180821052304 51 240 0.0 0.0 0.00 0.00 0.00 70 985.6
20180821051804 51 240 0.0 0.0 0.00 0.00 0.00 70 985.6
20180821051304 51 240 0.0 0.0 0.00 0.00 0.00 70 985.5
20180821050804 51 240 1.0 2.0 0.00 0.00 0.00 69 985.5
20180821050304 51 240 1.0 2.0 0.00 0.00 0.00 69 985.3
20180821045804 51 240 0.0 1.0 0.00 0.00 0.00 68 985.2
20180821045304 52 240 0.0 3.0 0.00 0.00 0.00 67 985.1
20180821044805 52 240 0.0 3.0 0.00 0.00 0.00 66 985.1
20180821044305 52 240 0.0 2.0 0.00 0.00 0.00 67 985.0
20180821043804 52 240 0.0 1.0 0.00 0.00 0.00 67 985.0
20180821043305 52 240 0.0 3.0 0.00 0.00 0.00 67 985.0
20180821042805 53 240 0.0 2.0 0.00 0.00 0.00 66 984.9
20180821042304 53 240 0.0 3.0 0.00 0.00 0.00 65 984.8
20180821041804 53 240 0.0 3.0 0.00 0.00 0.00 66 984.9
20180821041304 54 240 0.0 3.0 0.00 0.00 0.00 66 984.9
20180821040804 54 240 0.0 3.0 0.00 0.00 0.00 66 984.8
20180821040304 54 249 1.0 3.0 0.00 0.00 0.00 65 984.8
20180821035804 54 240 0.0 3.0 0.00 0.00 0.00 64 984.9
20180821035305 55 240 1.0 3.0 0.00 0.00 0.00 63 984.7
20180821034806 55 240 0.0 2.0 0.00 0.00 0.00 62 984.7
20180821034306 55 240 1.0 3.0 0.00 0.00 0.00 60 984.6
20180821033812 55 240 1.0 7.0 0.00 0.00 0.00 58 984.6
20180821033305 55 253 2.0 5.0 0.00 0.00 0.00 59 984.5
20180821032804 55 248 3.0 8.0 0.00 0.00 0.00 57 984.7
20180821032304 55 217 1.0 3.0 0.00 0.00 0.00 57 984.6
20180821031804 55 217 0.0 5.0 0.00 0.00 0.00 57 984.6
20180821031305 54 230 1.0 3.0 0.00 0.00 0.00 60 984.8
20180821030804 54 234 1.0 3.0 0.00 0.00 0.00 57 984.9
20180821030304 55 233 2.0 7.0 0.00 0.00 0.00 57 984.8
20180821025804 56 200 1.0 3.0 0.00 0.00 0.00 56 984.8
20180821025304 56 238 1.0 7.0 0.00 0.00 0.00 57 984.7
20180821024804 56 236 1.0 3.0 0.00 0.00 0.00 60 984.7
20180821024305 56 236 1.0 3.0 0.00 0.00 0.00 57 984.7
20180821023804 56 232 3.0 6.0 0.00 0.00 0.00 57 984.7
20180821023305 56 246 1.0 3.0 0.00 0.00 0.00 56 984.7
20180821022805 56 253 2.0 5.0 0.00 0.00 0.00 57 984.8
20180821022305 56 205 1.0 3.0 0.00 0.00 0.00 57 984.8
20180821021804 56 237 2.0 5.0 0.00 0.00 0.00 58 984.8
20180821021304 56 223 1.0 3.0 0.00 0.00 0.00 58 984.8
20180821020804 55 222 1.0 5.0 0.00 0.00 0.00 60 984.7
20180821020304 55 227 2.0 3.0 0.00 0.00 0.00 61 984.7
20180821015804 55 232 1.0 3.0 0.00 0.00 0.00 62 984.8